Date,TemperatureHighF,TemperatureAvgF,TemperatureLowF,DewpointHighF,DewpointAvgF,DewpointLowF,HumidityHigh,HumidityAvg,HumidityLow,PressureMaxIn,PressureMinIn,WindSpeedMaxMPH,WindSpeedAvgMPH,GustSpeedMaxMPH,PrecipitationSumIn
2013-1-1,29,20,11,25,16,6,90,82,74,29.96,29.76,27,12,33,0.00
2013-1-2,19,14,7,16,10,4,92,84,76,30.12,29.95,21,8,26,0.00
2013-1-3,24,15,-4,20,9,-8,88,78,60,30.20,30.03,13,5,19,0.00
2013-1-4,32,27,24,21,20,18,86,74,62,30.03,29.88,33,11,36,0.00
2013-1-5,29,26,19,24,20,15,87,77,66,30.25,29.90,39,10,40,0.00
2013-1-6,36,29,22,28,24,18,91,80,67,30.19,29.94,20,6,24,0.00
2013-1-7,32,24,18,29,21,15,95,86,73,30.38,30.00,26,7,31,0.00
2013-1-8,41,32,20,23,20,17,89,63,43,30.39,30.28,12,3,13,0.00
2013-1-9,45,35,27,36,24,18,80,65,46,30.37,30.00,39,8,46,0.00
2013-1-10,37,31,26,27,23,21,83,73,61,30.56,30.14,45,14,47,0.00
2013-1-11,34,28,23,34,25,20,98,89,79,30.55,30.08,22,6,25,0.02
2013-1-12,45,38,34,45,38,33,99,98,97,30.17,30.10,11,3,12,0.00
2013-1-13,47,40,33,47,40,33,99,99,97,30.13,29.94,14,4,15,0.01
2013-1-14,51,36,27,51,33,21,100,89,74,30.31,29.85,25,11,31,0.03
2013-1-15,29,26,24,22,21,19,88,81,73,30.37,30.24,17,6,23,0.00
2013-1-16,30,26,23,28,24,20,98,93,82,30.25,29.83,16,3,17,0.00
2013-1-17,30,24,14,26,18,6,88,80,68,30.14,29.86,22,8,26,0.00
2013-1-18,16,12,6,8,3,-6,81,67,54,30.44,30.08,19,7,23,0.00
2013-1-19,38,28,15,24,18,8,77,66,49,30.28,29.81,13,5,14,0.00
2013-1-20,43,30,14,32,19,6,89,64,33,29.97,29.55,37,12,40,0.01
2013-1-21,20,14,8,14,10,6,93,84,55,30.04,29.81,16,4,19,0.00
2013-1-22,12,7,1,9,-3,-9,91,63,48,30.12,29.80,22,10,27,0.00
2013-1-23,3,-2,-10,-2,-8,-13,88,75,62,30.22,30.11,21,6,24,0.00
2013-1-24,7,1,-6,2,-7,-12,85,70,50,30.39,30.18,36,13,48,0.00
2013-1-25,5,1,-1,1,-2,-4,86,85,83,30.42,30.37,28,15,34,0.00
2013-1-26,7,4,2,5,1,-1,91,87,82,30.36,30.08,18,4,20,0.00
2013-1-27,21,12,7,7,1,-7,90,65,31,30.55,30.36,26,11,26,0.00
2013-1-28,33,20,15,32,13,1,98,77,52,30.50,29.98,19,4,19,0.00
2013-1-29,39,32,29,39,32,28,99,98,95,30.16,30.00,19,5,21,0.24
2013-1-30,51,43,34,51,43,34,99,99,99,30.01,29.31,20,8,22,0.29
2013-1-31,49,33,20,49,28,10,100,81,58,29.60,28.91,38,13,48,0.36